Weather History for Omaha Offutt, NE

Change the Weather History Date:

Tuesday, September 16, 2014

  Actual Average Record
Temperature  
Mean Temperature 54 °F -  
Max Temperature 68 °F 74 °F 86 °F (1997)
Min Temperature 40 °F 54 °F 40 °F (2014)
Degree Days  
Heating Degree Days 11    
Growing Degree Days 4 (Base 50)    
Moisture  
Dew Point 46 °F    
Average Humidity 94    
Maximum Humidity 100    
Minimum Humidity 56    
Precipitation  
Precipitation 0.01 in - - ()
Sea Level Pressure  
Sea Level Pressure 30.22 in    
Wind  
Wind Speed 1 mph (SSE)    
Max Wind Speed 10 mph    
Max Gust Speed -    
Visibility 4 miles    
Events Fog    
Averages and records for this station are not official NWS values.
T = Trace of Precipitation, MM = Missing Value Source: NWS Daily Summary

Daily Weather History Graph

Daily Weather History Graph

Search for Another Location

Airport:

Trip Planner

Search our weather history database for the weather conditions in past years. The results will help you decide how hot, cold, wet, or windy it might be!

Date:

Astronomy

Sep. 16, 2014 Rise Set
Actual Time 7:05 AM CDT 7:31 PM CDT
Civil Twilight 6:37 AM CDT 7:58 PM CDT
Nautical Twilight 6:04 AM CDT 8:31 PM CDT
Astronomical Twilight 5:31 AM CDT 9:04 PM CDT
Moon 12:13 AM CDT (9/16) 2:57 PM CDT (9/16)
Length of Visible Light 13h 21m
Length of Day
12h 25m
Last Quarter, 44% of the Moon is Illuminated
Sep 16
Last Quarter
Sep 24
New
Oct 1
First Quarter
Oct 8
Full
Oct 15
Last Quarter

Hourly Weather History & Observations

Time (CDT) Temp. Windchill Dew Point Humidity Pressure Visibility Wind Dir Wind Speed Gust Speed Precip Events Conditions
12:10 AM 44.6 °F - 44.6 °F 100% 30.26 in 2.5 mi Calm Calm - N/A   Clear
12:12 AM 44.6 °F - 44.6 °F 100% 30.26 in 1.8 mi Calm Calm - N/A   Clear
12:13 AM 44.6 °F - 44.6 °F 100% 30.26 in 1.5 mi Calm Calm - N/A   Clear
12:14 AM 44.6 °F - 44.6 °F 100% 30.26 in 1.2 mi Calm Calm - N/A   Clear
12:15 AM 44.6 °F - 44.6 °F 100% 30.26 in 1.0 mi Calm Calm - N/A   Clear
12:16 AM 44.6 °F - 44.6 °F 100% 30.26 in 0.8 mi Calm Calm - N/A   Clear
12:17 AM 44.6 °F - 44.6 °F 100% 30.26 in 0.8 mi Calm Calm - N/A   Clear
12:18 AM 44.6 °F - 44.6 °F 100% 30.26 in 0.8 mi Calm Calm - N/A   Clear
12:19 AM 44.6 °F - 44.6 °F 100% 30.26 in 0.5 mi Calm Calm - N/A Fog Fog
12:24 AM 44.6 °F - 44.6 °F 100% 30.26 in 0.8 mi NNW 1.2 mph - N/A   Clear
12:26 AM 44.6 °F - 44.6 °F 100% 30.26 in 1.0 mi NNW 2.3 mph - N/A   Clear
12:28 AM 44.6 °F 43.1 °F 44.6 °F 100% 30.26 in 10.0 mi WNW 3.5 mph - N/A   Clear
12:58 AM 44.1 °F - 44.1 °F 100% 30.29 in 10.0 mi West 2.3 mph - N/A   Clear
1:58 AM 41.7 °F - 41.7 °F 100% 30.29 in 10.0 mi Calm Calm - N/A   Clear
2:58 AM 40.5 °F - 40.5 °F 100% 30.29 in 10.0 mi Calm Calm - N/A   Clear
3:58 AM 40.5 °F - 40.5 °F 100% 30.28 in 10.0 mi Calm Calm - 0.00 in   Clear
4:58 AM 40.8 °F - 40.8 °F 100% 30.28 in 10.0 mi Calm Calm - N/A Fog Patches of Fog
5:15 AM 42.8 °F - 42.8 °F 100% 30.25 in 0.2 mi East 2.3 mph - N/A Fog Fog
5:47 AM 41.0 °F - 41.0 °F 100% 30.25 in 0.5 mi Calm Calm - N/A Fog Fog
5:49 AM 42.8 °F - 42.8 °F 100% 30.25 in 0.5 mi Calm Calm - N/A Fog Fog
5:53 AM 42.8 °F - 42.8 °F 100% 30.25 in 0.8 mi Calm Calm - N/A   Mist
5:56 AM 42.8 °F - 42.8 °F 100% 30.24 in 0.8 mi Calm Calm - N/A   Mist
5:58 AM 42.3 °F - 42.3 °F 100% 30.26 in 0.8 mi Calm Calm - N/A   Mist
6:03 AM 42.8 °F - 42.8 °F 100% 30.25 in 0.8 mi Calm Calm - N/A   Mist
6:12 AM 42.8 °F - 42.8 °F 100% 30.25 in 0.5 mi Calm Calm - N/A Fog Fog
6:17 AM 41.0 °F - 41.0 °F 100% 30.24 in 0.5 mi Calm Calm - N/A Fog Fog
6:20 AM 41.0 °F - 41.0 °F 100% 30.24 in 0.5 mi ESE 1.2 mph - N/A Fog Fog
6:21 AM 41.0 °F - 41.0 °F 100% 30.25 in 0.5 mi ESE 1.2 mph - N/A Fog Fog
6:22 AM 41.0 °F - 41.0 °F 100% 30.25 in 0.8 mi Calm Calm - N/A   Mist
6:26 AM 41.0 °F - 41.0 °F 100% 30.25 in 0.8 mi Calm Calm - N/A   Clear
6:31 AM 41.0 °F - 41.0 °F 100% 30.25 in 0.5 mi Calm Calm - N/A Fog Fog
6:35 AM 41.0 °F - 41.0 °F 100% 30.25 in 0.5 mi Calm Calm - N/A Fog Fog
6:37 AM 41.0 °F - 41.0 °F 100% 30.25 in 0.2 mi Calm Calm - N/A Fog Fog
6:40 AM 41.0 °F - 41.0 °F 100% 30.25 in 0.2 mi SSE 2.3 mph - N/A Fog Fog
6:48 AM 41.0 °F - 41.0 °F 100% 30.25 in 0.5 mi SE 2.3 mph - N/A Fog Fog
6:53 AM 41.0 °F - 41.0 °F 100% 30.25 in 0.2 mi Calm Calm - N/A Fog Fog
6:58 AM 41.7 °F - 41.7 °F 100% 30.27 in 0.2 mi Calm Calm - 0.00 in Fog Fog
6:59 AM 41.0 °F - 41.0 °F 100% 30.25 in 0.2 mi Calm Calm - N/A Fog Fog
7:18 AM 42.8 °F - 42.8 °F 100% 30.24 in 0.2 mi Calm Calm - N/A Fog Fog
7:58 AM 43.3 °F - 43.3 °F 100% 30.26 in 0.2 mi Calm Calm - 0.01 in Fog Fog
8:25 AM 44.6 °F - 44.6 °F 100% 30.24 in 0.2 mi South 1.2 mph - N/A Fog Fog
8:44 AM 46.4 °F - 46.4 °F 100% 30.24 in 0.5 mi South 2.3 mph - N/A Fog Fog
8:45 AM 46.4 °F - 46.4 °F 100% 30.24 in 0.5 mi South 2.3 mph - N/A Fog Fog
8:47 AM 46.4 °F - 46.4 °F 100% 30.23 in 0.5 mi SSE 2.3 mph - N/A Fog Fog
8:49 AM 46.4 °F - 46.4 °F 100% 30.23 in 0.8 mi Calm Calm - N/A   Mist
8:51 AM 46.4 °F - 46.4 °F 100% 30.23 in 0.8 mi South 1.2 mph - N/A   Mist
8:53 AM 46.4 °F - 46.4 °F 100% 30.24 in 1.0 mi Variable 1.2 mph - N/A   Mist
8:54 AM 46.4 °F - 46.4 °F 100% 30.24 in 1.0 mi South 1.2 mph - N/A   Mist
8:56 AM 48.2 °F - 48.2 °F 100% 30.24 in 1.2 mi South 3.5 mph - N/A   Mostly Cloudy
8:58 AM 48.2 °F - 48.2 °F 100% 30.27 in 1.2 mi South 3.5 mph - N/A   Mostly Cloudy
8:59 AM 48.2 °F - 48.2 °F 100% 30.24 in 1.8 mi South 3.5 mph - N/A   Mostly Cloudy
9:00 AM 48.2 °F - 48.2 °F 100% 30.24 in 2.0 mi SSE 3.5 mph - N/A   Mostly Cloudy
9:01 AM 48.2 °F - 48.2 °F 100% 30.24 in 3.0 mi SSE 3.5 mph - N/A   Mostly Cloudy
9:05 AM 48.2 °F - 48.2 °F 100% 30.24 in 9.0 mi SSE 2.3 mph - N/A   Scattered Clouds
9:58 AM 52.2 °F - 52.2 °F 100% 30.25 in 10.0 mi SE 2.3 mph - N/A   Clear
10:58 AM 59.4 °F - 55.9 °F 88% 30.24 in 10.0 mi South 5.8 mph - N/A   Clear
11:58 AM 62.2 °F - 52.2 °F 70% 30.22 in 10.0 mi South 6.9 mph - N/A   Clear
12:58 PM 63.5 °F - 53.4 °F 70% 30.19 in 10.0 mi Variable 5.8 mph - N/A   Clear
1:58 PM 65.8 °F - 54.1 °F 66% 30.15 in 10.0 mi SSE 10.4 mph - N/A   Clear
2:58 PM 66.9 °F - 53.1 °F 61% 30.12 in 10.0 mi SE 6.9 mph - N/A   Clear
3:58 PM 68.2 °F - 52.5 °F 57% 30.09 in 10.0 mi ESE 5.8 mph - N/A   Clear
4:58 PM 68.2 °F - 52.9 °F 58% 30.06 in 10.0 mi ESE 6.9 mph - N/A   Clear
5:58 PM 68.2 °F - 51.8 °F 56% 30.04 in 10.0 mi SE 9.2 mph - N/A   Partly Cloudy
6:58 PM 62.6 °F - 56.7 °F 81% 30.04 in 10.0 mi East 5.8 mph - N/A   Mostly Cloudy
7:58 PM 63.0 °F - 55.0 °F 75% 30.04 in 10.0 mi SE 5.8 mph - N/A   Overcast
8:58 PM 62.6 °F - 55.2 °F 77% 30.04 in 10.0 mi SE 6.9 mph - N/A   Overcast
9:58 PM 62.1 °F - 55.9 °F 80% 30.03 in 10.0 mi SE 9.2 mph - N/A   Overcast
10:58 PM 61.3 °F - 57.2 °F 86% 30.02 in 10.0 mi ESE 4.6 mph - N/A   Overcast
11:58 PM 61.2 °F - 57.7 °F 88% 30.01 in 10.0 mi ESE 4.6 mph - N/A   Overcast